{"data":{"norad_id":66570,"intl_designator":"2025-268P","name":"STARLINK-35834","alt_names":[],"object_type":"PAYLOAD","status":"ACTIVE","operator":null,"country":"US","launch_date":"2025-11-21","launch_site_code":"AFETR","launch_vehicle":null,"mission":null,"orbit_class":"UNKNOWN","rcs_meters":null,"size_class":null,"mass_kg":null,"dimensions":null,"purposes":["comms"],"wikipedia_slug":null,"has_3d_model":false,"image_url":null,"decayed_at":null,"tle_current":{"epoch":"2026-09-20T11:15:45.594144Z","epoch_age_seconds":91881,"freshness":"FRESH","line1":"1 66570U 25268P   26263.46927771  .00008606  00000+0  32183-3 0  9998","line2":"2 66570  43.0017 327.4975 0001489 279.1631  80.9052 15.27587244 47740","mean_motion":15.27587244,"eccentricity":0.0001489,"inclination_deg":43.0017,"raan_deg":327.4975,"arg_perigee_deg":279.1631,"mean_anomaly_deg":80.9052,"bstar":0.00032183,"rev_number":4774,"period_min":94.266301689542,"perigee_km":482.00577760345,"apogee_km":484.04903236326,"semimajor_km":6861.1644049834,"source":"CELESTRAK","updated_at":"2026-09-21T09:00:35.972210Z"}}}